Simultaneous Nadir Overpasses (SNOs) Predictions

Prediction of SNOs between AQUA and METOP-C Satellite Orbit:

Table of predicted SNOs for the next 14.0 days since TLE Epoch: 12/14/2018
Index Date (AQUA) Time (AQUA) Lat,Lon (AQUA) SZA (AQUA ) Date (METOP-C) Time (METOP-C) Lat,Lon (METOP-C) SZA (METOP-C ) Distance(km) Time Diff (sec)
1 12/17/2018 09:26:07 -73.84,-147.35 82.85 12/17/2018 09:25:39 -73.81,-147.33 82.87 3.39 28
2 12/17/2018 10:15:36 73.91, 20.13 97.23 12/17/2018 10:16:17 73.91, 20.25 97.23 3.61 41
3 12/20/2018 05:00:23 -73.83, -80.90 82.78 12/20/2018 05:00:02 -73.84, -80.85 82.77 1.58 21
4 12/20/2018 05:49:52 73.90, 86.59 97.30 12/20/2018 05:50:41 73.88, 86.59 97.28 2.00 49
5 12/22/2018 23:45:03 73.27, 179.08 96.66 12/22/2018 23:43:56 73.22, 176.82 96.67 72.69 67
6 12/23/2018 00:34:39 -73.83, -14.45 82.77 12/23/2018 00:34:26 -73.81, -14.49 82.78 1.84 13
7 12/23/2018 01:24:08 73.90, 153.03 97.31 12/23/2018 01:25:04 73.90, 153.05 97.31 0.99 56
8 12/25/2018 19:19:25 73.59,-115.15 96.94 12/25/2018 19:18:14 73.49,-116.15 96.88 33.51 71
9 12/25/2018 20:08:55 -73.83, 51.97 82.81 12/25/2018 20:08:49 -73.84, 51.99 82.80 1.23 6
10 12/25/2018 20:58:24 73.90,-140.54 97.27 12/25/2018 20:59:27 73.92,-140.48 97.28 3.13 63
11 12/28/2018 14:53:43 73.76, -49.07 97.01 12/28/2018 14:52:31 73.76, -49.11 97.03 1.36 72
12 12/28/2018 15:43:10 -73.84, 118.39 82.91 12/28/2018 15:43:12 -73.82, 118.35 82.93 2.72 2




NCC Satellite Simultaneous Nadir Overpasses (SNOs) Prediction Service
